Tiempo cada hora Bolshie Kopeny

Hoy, 31 Julio, Sábado

Tiempo Temperatura Precipitaciones Viento Presión Humedad
00:00 +22°C° 0.2 mm 3 mps 745 mmHg 77%
01:00 +22°C° 0.2 mm 3 mps 745 mmHg 79%
02:00 +21°C° 0.2 mm 3 mps 745 mmHg 80%
03:00 +21°C° 0.2 mm 3 mps 745 mmHg 82%
04:00 +21°C° 0 mm 3 mps 745 mmHg 83%
05:00 +22°C° 0 mm 3 mps 745 mmHg 83%
06:00 +22°C° 0 mm 4 mps 745 mmHg 83%
07:00 +23°C° 0 mm 4 mps 745 mmHg 76%
08:00 +26°C° 0 mm 5 mps 746 mmHg 69%
09:00 +28°C° 0 mm 5 mps 746 mmHg 62%
10:00 +28°C° 0 mm 5 mps 746 mmHg 61%
11:00 +28°C° 0 mm 5 mps 746 mmHg 59%
12:00 +29°C° 0 mm 5 mps 746 mmHg 58%
13:00 +30°C° 0 mm 5 mps 746 mmHg 55%
14:00 +30°C° 0 mm 5 mps 746 mmHg 52%
15:00 +32°C° 0 mm 5 mps 746 mmHg 49%
16:00 +30°C° 0.1 mm 5 mps 747 mmHg 54%
17:00 +29°C° 0.1 mm 5 mps 747 mmHg 59%
18:00 +27°C° 0.1 mm 5 mps 747 mmHg 64%
19:00 +26°C° 0.1 mm 4 mps 747 mmHg 66%
20:00 +25°C° 0.1 mm 3 mps 747 mmHg 68%
21:00 +23°C° 0.1 mm 1 mps 747 mmHg 70%
22:00 +23°C° 0 mm 1 mps 747 mmHg 70%
23:00 +23°C° 0 mm 1 mps 748 mmHg 71%

Mañana, 1 Agosto, Domingo

Tiempo Temperatura Precipitaciones Viento Presión Humedad
00:00 +21°C° 0 mm 0 mps 748 mmHg 72%
01:00 +21°C° 0 mm 0 mps 748 mmHg 71%
02:00 +21°C° 0 mm 0 mps 748 mmHg 71%
03:00 +21°C° 0 mm 0 mps 749 mmHg 70%
04:00 +22°C° 0 mm 0 mps 749 mmHg 69%
05:00 +22°C° 0 mm 0 mps 749 mmHg 67%
06:00 +23°C° 0 mm 0 mps 749 mmHg 65%
07:00 +27°C° 0 mm 1 mps 749 mmHg 58%
08:00 +29°C° 0 mm 1 mps 749 mmHg 50%
09:00 +31°C° 0 mm 1 mps 750 mmHg 42%
10:00 +32°C° 0 mm 1 mps 750 mmHg 39%
11:00 +33°C° 0 mm 1 mps 749 mmHg 36%
12:00 +33°C° 0 mm 0 mps 749 mmHg 33%
13:00 +35°C° 0 mm 1 mps 749 mmHg 32%
14:00 +35°C° 0 mm 1 mps 749 mmHg 31%
15:00 +36°C° 0 mm 2 mps 749 mmHg 30%
16:00 +35°C° 0 mm 2 mps 749 mmHg 33%
17:00 +34°C° 0 mm 2 mps 749 mmHg 37%
18:00 +32°C° 0 mm 2 mps 749 mmHg 40%
19:00 +30°C° 0 mm 2 mps 749 mmHg 44%
20:00 +29°C° 0 mm 2 mps 749 mmHg 47%
21:00 +27°C° 0 mm 2 mps 749 mmHg 50%
22:00 +27°C° 0 mm 2 mps 749 mmHg 50%
23:00 +27°C° 0 mm 2 mps 749 mmHg 49%

Pasado mañana, 2 Agosto, Lunes

Tiempo Temperatura Precipitaciones Viento Presión Humedad
00:00 +27°C° 0 mm 2 mps 749 mmHg 49%
01:00 +26°C° 0 mm 2 mps 749 mmHg 50%
02:00 +25°C° 0 mm 2 mps 749 mmHg 51%
03:00 +25°C° 0 mm 2 mps 749 mmHg 51%
04:00 +25°C° 0 mm 2 mps 749 mmHg 51%
05:00 +26°C° 0 mm 2 mps 749 mmHg 51%
06:00 +26°C° 0 mm 2 mps 749 mmHg 51%
07:00 +28°C° 0 mm 3 mps 749 mmHg 45%
08:00 +31°C° 0 mm 3 mps 749 mmHg 40%
09:00 +34°C° 0 mm 3 mps 749 mmHg 34%
10:00 +36°C° 0 mm 3 mps 749 mmHg 29%
11:00 +38°C° 0 mm 4 mps 749 mmHg 23%
12:00 +40°C° 0 mm 4 mps 748 mmHg 18%
13:00 +40°C° 0 mm 4 mps 748 mmHg 17%
14:00 +41°C° 0 mm 4 mps 748 mmHg 17%
15:00 +41°C° 0 mm 4 mps 747 mmHg 16%
16:00 +38°C° 0 mm 4 mps 747 mmHg 20%
17:00 +37°C° 0 mm 4 mps 747 mmHg 23%
18:00 +35°C° 0 mm 5 mps 747 mmHg 27%
19:00 +34°C° 0 mm 4 mps 747 mmHg 28%
20:00 +32°C° 0 mm 4 mps 747 mmHg 30%
21:00 +29°C° 0 mm 3 mps 747 mmHg 32%
22:00 +29°C° 0 mm 3 mps 747 mmHg 32%
23:00 +29°C° 0 mm 3 mps 747 mmHg 32%

3 Agosto, Martes

Tiempo Temperatura Precipitaciones Viento Presión Humedad
00:00 +29°C° 0 mm 2 mps 746 mmHg 32%
01:00 +28°C° 0 mm 2 mps 746 mmHg 34%
02:00 +27°C° 0 mm 2 mps 747 mmHg 36%
03:00 +26°C° 0 mm 2 mps 747 mmHg 38%
04:00 +26°C° 0 mm 2 mps 747 mmHg 39%
05:00 +26°C° 0 mm 3 mps 747 mmHg 39%
06:00 +27°C° 0 mm 3 mps 747 mmHg 40%
07:00 +29°C° 0 mm 4 mps 747 mmHg 34%
08:00 +33°C° 0 mm 5 mps 746 mmHg 29%
09:00 +35°C° 0 mm 6 mps 746 mmHg 23%
10:00 +38°C° 0 mm 6 mps 746 mmHg 21%
11:00 +39°C° 0 mm 6 mps 746 mmHg 19%
12:00 +40°C° 0 mm 7 mps 746 mmHg 17%
13:00 +41°C° 0 mm 7 mps 745 mmHg 15%
14:00 +41°C° 0 mm 8 mps 745 mmHg 14%
15:00 +43°C° 0 mm 8 mps 745 mmHg 13%
16:00 +38°C° 0 mm 7 mps 745 mmHg 25%
17:00 +33°C° 0 mm 6 mps 745 mmHg 38%
18:00 +29°C° 0 mm 5 mps 745 mmHg 50%
19:00 +27°C° 0.1 mm 5 mps 746 mmHg 57%
20:00 +26°C° 0.1 mm 5 mps 746 mmHg 64%
21:00 +25°C° 0.1 mm 5 mps 747 mmHg 71%
22:00 +23°C° 0.2 mm 4 mps 747 mmHg 72%
23:00 +23°C° 0.2 mm 4 mps 747 mmHg 73%

4 Agosto, Miércoles

Tiempo Temperatura Precipitaciones Viento Presión Humedad
00:00 +22°C° 0.2 mm 3 mps 747 mmHg 74%
01:00 +22°C° 0 mm 3 mps 747 mmHg 76%
02:00 +21°C° 0 mm 3 mps 747 mmHg 79%
03:00 +21°C° 0 mm 3 mps 747 mmHg 81%
04:00 +21°C° 0.1 mm 3 mps 747 mmHg 83%
05:00 +21°C° 0.1 mm 4 mps 748 mmHg 84%
06:00 +20°C° 0.1 mm 4 mps 748 mmHg 85%
07:00 +22°C° 0 mm 4 mps 749 mmHg 78%
08:00 +23°C° 0 mm 4 mps 749 mmHg 70%
09:00 +25°C° 0 mm 4 mps 749 mmHg 63%
10:00 +26°C° 0 mm 5 mps 749 mmHg 55%
11:00 +27°C° 0 mm 5 mps 749 mmHg 48%
12:00 +29°C° 0 mm 5 mps 750 mmHg 40%
13:00 +29°C° 0 mm 5 mps 750 mmHg 37%
14:00 +30°C° 0 mm 5 mps 750 mmHg 35%
15:00 +30°C° 0 mm 5 mps 750 mmHg 32%
16:00 +30°C° 0 mm 5 mps 750 mmHg 33%
17:00 +29°C° 0 mm 5 mps 750 mmHg 35%
18:00 +28°C° 0 mm 5 mps 750 mmHg 36%
19:00 +26°C° 0 mm 4 mps 750 mmHg 42%
20:00 +24°C° 0 mm 3 mps 751 mmHg 48%
21:00 +21°C° 0 mm 3 mps 751 mmHg 54%
22:00 +21°C° 0 mm 2 mps 751 mmHg 55%
23:00 +20°C° 0 mm 2 mps 751 mmHg 57%

5 Agosto, Jueves

Tiempo Temperatura Precipitaciones Viento Presión Humedad
00:00 +19°C° 0 mm 2 mps 751 mmHg 59%
01:00 +19°C° 0 mm 2 mps 751 mmHg 60%
02:00 +18°C° 0 mm 2 mps 751 mmHg 62%
03:00 +18°C° 0 mm 2 mps 751 mmHg 63%
04:00 +18°C° 0 mm 2 mps 752 mmHg 62%
05:00 +19°C° 0 mm 2 mps 752 mmHg 61%
06:00 +21°C° 0 mm 1 mps 752 mmHg 60%
07:00 +23°C° 0 mm 2 mps 752 mmHg 52%
08:00 +25°C° 0 mm 2 mps 752 mmHg 44%
09:00 +27°C° 0 mm 3 mps 752 mmHg 37%
10:00 +28°C° 0 mm 3 mps 752 mmHg 34%
11:00 +29°C° 0 mm 3 mps 752 mmHg 32%
12:00 +30°C° 0 mm 3 mps 752 mmHg 29%
13:00 +30°C° 0 mm 3 mps 752 mmHg 28%
14:00 +31°C° 0 mm 3 mps 751 mmHg 27%
15:00 +31°C° 0 mm 3 mps 751 mmHg 26%
16:00 +30°C° 0 mm 3 mps 751 mmHg 28%
17:00 +30°C° 0 mm 3 mps 751 mmHg 29%
18:00 +29°C° 0 mm 3 mps 751 mmHg 31%
19:00 +27°C° 0 mm 3 mps 751 mmHg 34%
20:00 +25°C° 0 mm 3 mps 751 mmHg 37%
21:00 +22°C° 0 mm 3 mps 751 mmHg 41%
22:00 +21°C° 0 mm 3 mps 751 mmHg 45%
23:00 +20°C° 0 mm 3 mps 751 mmHg 49%
Mostrar más